FW7729 Weather Reports


Display with metric or nautical units.
time (UTC)temp
F
wind
direction
speed
MPH
gust
MPH
rain 1hr
in
rain 24hr
in
rain mn
in
humidity
%
barometer
mb
20260510073202 52 54 0.0 0.0 0.00 0.00 0.00 10 1010.2
20260510072628 52 54 0.0 0.0 0.00 0.00 0.00 10 1010.2
20260510072054 52 54 0.0 0.0 0.00 0.00 0.00 10 1010.2
20260510071520 52 54 0.0 0.0 0.00 0.00 0.00 10 1010.1
20260510065316 53 54 0.0 0.0 0.00 0.00 0.00 10 1009.8
20260510064742 53 54 0.0 0.0 0.00 0.00 0.00 10 1009.7
20260510061437 54 54 0.0 0.0 0.00 0.00 0.00 10 1009.6
20260510060904 54 54 0.0 0.0 0.00 0.00 0.00 10 1009.7
20260510055759 54 54 0.0 0.0 0.00 0.00 0.00 10 1009.6
20260510054655 55 54 0.0 0.0 0.00 0.00 0.00 10 1009.7
20260510053551 55 54 0.0 0.0 0.00 0.00 0.00 10 1009.7
20260510053017 55 54 0.0 0.0 0.00 0.00 0.00 10 1009.7
20260510051343 56 54 0.0 0.0 0.00 0.00 0.00 10 1009.8
20260510050809 56 176 1.0 0.0 0.00 0.00 0.00 10 1009.8
20260510050235 56 166 0.0 0.0 0.00 0.00 0.00 10 1009.8
20260510045701 56 166 0.0 0.0 0.00 0.00 0.00 10 1009.7
20260510045127 57 166 0.0 0.0 0.00 0.00 0.00 10 1009.8
20260510044553 57 166 0.0 0.0 0.00 0.00 0.00 10 1009.7
20260510043449 57 166 0.0 0.0 0.00 0.00 0.00 10 1009.5
20260510042915 57 166 0.0 0.0 0.00 0.00 0.00 10 1009.5
20260510034510 58 166 0.0 0.0 0.00 0.00 0.00 97 1009.4
20260510033936 58 166 0.0 0.0 0.00 0.00 0.00 97 1009.5
20260510033402 59 166 0.0 0.0 0.00 0.00 0.00 97 1009.4
20260510032828 59 166 0.0 0.0 0.00 0.00 0.00 97 1009.3
20260510032254 59 166 0.0 0.0 0.00 0.00 0.00 96 1009.3
20260510031720 59 166 0.0 0.0 0.00 0.00 0.00 96 1009.4
20260510030616 60 166 0.0 0.0 0.00 0.00 0.00 95 1009.3
20260510025512 60 166 0.0 0.0 0.00 0.00 0.00 95 1009.4
20260510024408 60 166 0.0 0.0 0.00 0.00 0.00 94 1009.3
20260510022734 61 166 0.0 0.0 0.00 0.00 0.00 93 1009.1
20260510022200 61 166 0.0 0.0 0.00 0.00 0.00 93 1009.1
20260510021626 61 166 0.0 0.0 0.00 0.00 0.00 93 1009.1
20260510021052 61 166 0.0 0.0 0.00 0.00 0.00 92 1009.0
20260510020517 61 166 0.0 0.0 0.00 0.00 0.00 92 1009.0
20260510013743 62 166 0.0 0.0 0.00 0.00 0.00 90 1008.8
20260510013209 62 174 0.0 0.0 0.00 0.00 0.00 90 1008.7
20260510012635 62 174 0.0 0.0 0.00 0.00 0.00 89 1008.6
20260510012101 63 174 0.0 0.0 0.00 0.00 0.00 89 1008.4
20260510010957 63 174 0.0 0.0 0.00 0.00 0.00 87 1008.2
20260510005853 64 174 0.0 0.0 0.00 0.00 0.00 86 1008.2
20260510005319 64 174 0.0 0.0 0.00 0.00 0.00 85 1008.1
20260510004215 65 174 0.0 0.0 0.00 0.00 0.00 85 1008.1
20260510003641 65 174 0.0 0.0 0.00 0.00 0.00 84 1008.0
20260510003107 66 174 0.0 0.0 0.00 0.00 0.00 83 1008.1
20260510002533 66 174 0.0 0.0 0.00 0.00 0.00 82 1008.0
20260510001959 67 174 0.0 0.0 0.00 0.00 0.00 82 1007.9
20260510001425 67 174 0.0 0.0 0.00 0.00 0.00 81 1007.8
20260510000850 67 174 0.0 0.0 0.00 0.00 0.00 80 1007.9
20260510000318 68 174 0.0 0.0 0.00 0.00 0.00 79 1007.9
20260509235742 68 174 0.0 0.0 0.00 0.00 0.00 79 1007.7
20260509235208 68 174 0.0 0.0 0.00 0.00 0.00 78 1007.7
20260509234104 69 174 0.0 0.0 0.00 0.00 0.00 77 1007.6
20260509233530 69 174 0.0 0.0 0.00 0.00 0.00 77 1007.5
20260509232955 70 174 0.0 0.0 0.00 0.00 0.00 76 1007.5
20260509232421 70 174 0.0 0.0 0.00 0.00 0.00 76 1007.5
20260509230747 70 174 0.0 0.0 0.00 0.00 0.00 75 1007.4
20260509230213 71 174 0.0 0.0 0.00 0.00 0.00 74 1007.5
20260509225109 71 174 0.0 0.0 0.00 0.00 0.00 72 1007.4
20260509224535 71 174 0.0 0.0 0.00 0.00 0.00 72 1007.4
20260509224001 72 191 0.0 0.0 0.00 0.00 0.00 71 1007.5
20260509223427 72 191 0.0 0.0 0.00 0.00 0.00 70 1007.5
20260509222853 72 191 0.0 0.0 0.00 0.00 0.00 68 1007.4
20260509222319 72 202 0.0 0.0 0.00 0.00 0.00 66 1007.4
20260509221745 72 202 0.0 0.0 0.00 0.00 0.00 66 1007.5
20260509221211 72 202 0.0 0.0 0.00 0.00 0.00 65 1007.6
20260509220637 72 202 0.0 0.0 0.00 0.00 0.00 66 1007.6
20260509215529 72 207 0.0 0.0 0.00 0.00 0.00 66 1007.5
20260509214955 72 195 0.0 0.0 0.00 0.00 0.00 66 1007.5
20260509214421 72 195 0.0 0.0 0.00 0.00 0.00 68 1007.5
20260509213847 71 189 0.0 0.0 0.00 0.00 0.00 71 1007.5
20260509213312 71 189 0.0 0.0 0.00 0.00 0.00 71 1007.4
20260509212739 71 244 0.0 0.0 0.00 0.00 0.00 71 1007.4
20260509211104 72 252 1.0 0.0 0.00 0.00 0.00 68 1007.5
20260509210001 71 31 0.0 0.0 0.00 0.00 0.00 69 1007.3
20260509205426 71 178 2.0 0.0 0.00 0.00 0.00 69 1007.5
20260509204322 71 198 0.0 0.0 0.00 0.00 0.00 71 1007.5
20260509203748 71 166 1.0 0.0 0.00 0.00 0.00 70 1007.5
20260509203214 71 221 1.0 0.0 0.00 0.00 0.00 71 1007.4
20260509202640 71 162 0.0 0.0 0.00 0.00 0.00 71 1007.3
20260509202106 71 168 3.0 0.0 0.00 0.00 0.00 71 1007.3
20260509201532 70 161 0.0 0.0 0.00 0.00 0.00 72 1007.3
20260509200958 70 312 1.0 0.0 0.00 0.00 0.00 72 1007.5
20260509200424 70 220 0.0 0.0 0.00 0.00 0.00 74 1007.6
20260509195850 70 266 2.0 0.0 0.00 0.00 0.00 73 1007.7
20260509195316 69 224 1.0 0.0 0.00 0.00 0.00 73 1007.9
20260509194742 69 231 0.0 0.0 0.00 0.00 0.00 72 1007.9
20260509194208 69 231 2.0 0.0 0.00 0.00 0.00 71 1007.9
20260509193633 69 233 1.0 0.0 0.00 0.00 0.00 72 1007.9
20260509193059 69 183 1.0 0.0 0.00 0.00 0.00 72 1008.0
20260509192525 69 187 2.0 0.0 0.00 0.00 0.00 72 1008.1
20260509190850 69 186 1.0 0.0 0.00 0.00 0.00 74 1008.4
20260509190317 68 184 2.0 0.0 0.00 0.00 0.00 74 1008.5
20260509185213 68 171 1.0 0.0 0.00 0.00 0.00 75 1008.3
20260509184108 68 183 0.0 0.0 0.00 0.00 0.00 76 1008.5
20260509183534 68 177 1.0 0.0 0.00 0.00 0.00 74 1008.4
20260509180800 67 274 0.0 0.0 0.00 0.00 0.00 77 1009.1
20260509180226 67 274 0.0 0.0 0.00 0.00 0.00 76 1009.3
20260509175122 67 183 0.0 0.0 0.00 0.00 0.00 76 1009.3
20260509174548 67 172 0.0 0.0 0.00 0.00 0.00 76 1009.4
20260509174014 67 172 0.0 0.0 0.00 0.00 0.00 74 1009.5
20260509173440 67 172 0.0 0.0 0.00 0.00 0.00 75 1009.5
20260509172906 68 167 1.0 0.0 0.00 0.00 0.00 74 1009.4
20260509172332 68 132 0.0 0.0 0.00 0.00 0.00 74 1009.4
20260509171758 68 208 1.0 0.0 0.00 0.00 0.00 74 1009.5
20260509171224 68 272 0.0 0.0 0.00 0.00 0.00 75 1009.6
20260509170650 67 193 1.0 0.0 0.00 0.00 0.00 76 1009.5
20260509165546 66 185 0.0 0.0 0.00 0.00 0.00 77 1009.7
20260509165012 66 152 1.0 0.0 0.00 0.00 0.00 75 1009.6
20260509164438 66 184 1.0 0.0 0.00 0.00 0.00 76 1009.6
20260509163333 66 202 1.0 0.0 0.00 0.00 0.00 76 1009.8
20260509162759 66 181 1.0 0.0 0.00 0.00 0.00 77 1009.8
20260509162225 66 168 2.0 0.0 0.00 0.00 0.00 76 1009.7
20260509161651 66 177 1.0 0.0 0.00 0.00 0.00 76 1009.7
20260509160547 66 264 1.0 0.0 0.00 0.00 0.00 75 1009.7
20260509160013 66 276 2.0 0.0 0.00 0.00 0.00 77 1009.7
20260509155439 66 221 0.0 0.0 0.00 0.00 0.00 76 1009.6
20260509154905 66 166 0.0 0.0 0.00 0.00 0.00 78 1009.8
20260509154331 65 185 0.0 0.0 0.00 0.00 0.00 77 1009.9
20260509153227 65 179 3.0 0.0 0.00 0.00 0.00 75 1009.9
20260509152653 65 91 0.0 0.0 0.00 0.00 0.00 76 1009.9
20260509152119 65 251 2.0 0.0 0.00 0.00 0.00 77 1009.9
20260509145914 63 196 1.0 0.0 0.00 0.00 0.00 77 1010.1
20260509144240 62 164 0.0 0.0 0.00 0.00 0.00 79 1010.3
20260509143706 61 192 1.0 0.0 0.00 0.00 0.00 80 1010.4
20260509143132 61 280 0.0 0.0 0.00 0.00 0.00 81 1010.5
20260509142028 60 264 0.0 0.0 0.00 0.00 0.00 81 1010.7
20260509135824 58 172 0.0 0.0 0.00 0.00 0.00 81 1010.7
20260509134720 58 172 0.0 0.0 0.00 0.00 0.00 82 1010.6
20260509134146 58 172 0.0 0.0 0.00 0.00 0.00 82 1010.7
20260509133042 58 172 0.0 0.0 0.00 0.00 0.00 81 1010.8
20260509132508 58 172 0.0 0.0 0.00 0.00 0.00 82 1010.9
20260509131934 58 172 0.0 0.0 0.00 0.00 0.00 81 1010.8
20260509131400 58 172 0.0 0.0 0.00 0.00 0.00 81 1010.9
20260509130826 57 171 0.0 0.0 0.00 0.00 0.00 81 1010.9
20260509130252 57 171 0.0 0.0 0.00 0.00 0.00 81 1010.8
20260509125717 57 171 1.0 0.0 0.00 0.00 0.00 81 1010.8
20260509125143 57 160 0.0 0.0 0.00 0.00 0.00 80 1010.7
20260509124609 57 156 1.0 0.0 0.00 0.00 0.00 80 1010.7
20260509124035 57 199 2.0 0.0 0.00 0.00 0.00 80 1010.7
20260509123501 57 169 1.0 0.0 0.00 0.00 0.00 79 1010.7
20260509122927 57 164 2.0 0.0 0.00 0.00 0.00 79 1010.7
20260509121823 57 157 0.0 0.0 0.00 0.00 0.00 79 1010.7
20260509121249 57 170 1.0 0.0 0.00 0.00 0.00 78 1010.7
20260509120715 57 145 1.0 0.0 0.00 0.00 0.00 78 1010.7
20260509120141 56 176 2.0 0.0 0.00 0.00 0.00 78 1010.6
20260509115607 56 170 2.0 0.0 0.00 0.00 0.00 78 1010.6
20260509114503 56 165 1.0 0.0 0.00 0.00 0.00 77 1010.7
20260509113359 57 162 2.0 0.0 0.00 0.00 0.00 76 1010.7
20260509111724 57 166 1.0 0.0 0.00 0.00 0.00 74 1010.3
20260509111150 57 168 1.0 0.0 0.00 0.00 0.00 73 1010.4
20260509105516 58 168 1.0 0.0 0.00 0.00 0.00 71 1010.3
20260509104942 58 165 1.0 0.0 0.00 0.00 0.00 70 1010.3
20260509103838 58 166 1.0 0.0 0.00 0.00 0.00 69 1010.2
20260509103304 58 161 0.0 0.0 0.00 0.00 0.00 70 1010.2
20260509102200 58 161 0.0 0.0 0.00 0.00 0.00 69 1010.2
20260509100526 58 216 0.0 0.0 0.00 0.00 0.00 70 1010.2
20260509095952 58 216 0.0 0.0 0.00 0.00 0.00 69 1010.1
20260509094848 58 222 1.0 0.0 0.00 0.00 0.00 70 1009.9
20260509094314 58 222 0.0 0.0 0.00 0.00 0.00 70 1010.0
20260509093740 58 222 0.0 0.0 0.00 0.00 0.00 70 1010.0
20260509093205 58 222 0.0 0.0 0.00 0.00 0.00 70 1010.1
20260509092632 57 231 0.0 0.0 0.00 0.00 0.00 70 1010.1
20260509092057 57 231 0.0 0.0 0.00 0.00 0.00 71 1010.2
20260509091523 57 231 0.0 0.0 0.00 0.00 0.00 71 1010.2
20260509090949 57 228 0.0 0.0 0.00 0.00 0.00 72 1010.3
20260509090415 57 206 0.0 0.0 0.00 0.00 0.00 72 1010.3
20260509083641 57 142 0.0 0.0 0.00 0.00 0.00 72 1010.5
20260509082537 57 142 0.0 0.0 0.00 0.00 0.00 72 1010.5
20260509082003 57 173 1.0 0.0 0.00 0.00 0.00 72 1010.5
20260509080859 57 166 1.0 0.0 0.00 0.00 0.00 72 1010.8
20260509080325 57 191 1.0 0.0 0.00 0.00 0.00 72 1010.8
20260509075751 57 172 2.0 0.0 0.00 0.00 0.00 71 1010.9
20260509074117 57 149 1.0 0.0 0.00 0.00 0.00 72 1011.1
20260509073543 57 183 1.0 0.0 0.00 0.00 0.00 72 1011.0